Location: Congrier
(47.8099°N, 1.1170°W)
Time: 20:59:41
(UTC+00:00)

CZ-4B DEB - Visible Passes

Search period start: 27 February 2024 00:00
Search period end: 08 March 2024 00:00
Orbit: 837 x 858 km, 99.0° (Epoch: 27 February)

Date Brightness Start Highest point End Pass type
(mag) Time Alt. Az. Time Alt. Az. Time Alt. Az.
27 Feb 5.3 19:40:17 10° S 19:45:28 45° W 19:50:44 10° NNW visible
28 Feb 4.8 19:27:25 10° S 19:32:46 58° WSW 19:38:11 10° NNW visible
29 Feb 4.4 19:14:39 10° S 19:20:05 73° WSW 19:25:35 10° NNW visible
29 Feb 7.2 21:00:18 10° W 21:01:40 11° W 21:03:03 10° WNW visible
01 Mar 4.2 19:01:58 10° SSE 19:07:26 89° NE 19:12:56 10° NNW visible
01 Mar 7.0 20:45:55 10° WSW 20:48:48 14° W 20:51:42 10° NW visible
02 Mar 4.1 18:49:21 10° SSE 18:54:47 72° ENE 19:00:16 10° NNW visible
02 Mar 6.7 20:32:15 10° SW 20:35:58 18° W 20:39:42 10° NW visible
03 Mar 4.3 18:36:50 10° SSE 18:42:10 58° ENE 18:47:33 10° N visible
03 Mar 6.4 20:18:52 10° SW 20:23:09 23° W 20:27:29 10° NW visible
04 Mar 4.5 18:24:24 10° SE 18:29:35 46° ENE 18:34:48 10° N visible
04 Mar 6.1 20:05:40 10° SSW 20:10:22 29° W 20:15:08 10° NW visible
05 Mar 5.7 19:52:35 10° SSW 19:57:36 37° W 20:02:41 10° NNW visible
06 Mar 5.2 19:39:38 10° S 19:44:52 47° W 19:50:10 10° NNW visible
07 Mar 4.8 19:26:46 10° S 19:32:09 59° WSW 19:37:36 10° NNW visible
